When you browse on this site, cookies collect data to enhance your experience and personalize the content and advertising you see.
Visit our Privacy Policy to learn more. By continuing to use the site, you agree to this use of cookies and data.
  • En España
  • Lista de países
  • Para 7 días
  • Temperatura del agua
  • El tiempo en el mapa
  • Informadores
  • user-avatar
    Iniciar sesión

    Tiempo cada hora Tibissa

    Hoy, 23 Octubre, Miércoles

    Tiempo Temperatura Precipitaciones Viento Presión Humedad
    00:00 +18°C° 0 mm 7 mps 683 mmHg 71%
    01:00 +18°C° 0 mm 7 mps 683 mmHg 70%
    02:00 +18°C° 0 mm 7 mps 683 mmHg 71%
    03:00 +17°C° 0 mm 7 mps 682 mmHg 73%
    04:00 +17°C° 0 mm 7 mps 682 mmHg 74%
    05:00 +17°C° 0 mm 7 mps 682 mmHg 76%
    06:00 +17°C° 0 mm 7 mps 682 mmHg 78%
    07:00 +17°C° 0 mm 7 mps 681 mmHg 80%
    08:00 +18°C° 0 mm 8 mps 682 mmHg 70%
    09:00 +21°C° 0 mm 8 mps 683 mmHg 61%
    10:00 +23°C° 0 mm 9 mps 683 mmHg 51%
    11:00 +24°C° 0 mm 10 mps 683 mmHg 46%
    12:00 +26°C° 0 mm 10 mps 683 mmHg 40%
    13:00 +28°C° 0 mm 11 mps 683 mmHg 34%
    14:00 +28°C° 0 mm 11 mps 683 mmHg 33%
    15:00 +28°C° 0 mm 10 mps 683 mmHg 32%
    16:00 +28°C° 0 mm 10 mps 683 mmHg 31%
    17:00 +26°C° 0 mm 8 mps 683 mmHg 33%
    18:00 +24°C° 0 mm 6 mps 683 mmHg 36%
    19:00 +23°C° 0 mm 5 mps 683 mmHg 38%
    20:00 +22°C° 0 mm 4 mps 683 mmHg 45%
    21:00 +21°C° 0 mm 4 mps 684 mmHg 51%
    22:00 +20°C° 0 mm 3 mps 684 mmHg 57%
    23:00 +19°C° 0 mm 3 mps 684 mmHg 63%

    Mañana, 24 Octubre, Jueves

    Tiempo Temperatura Precipitaciones Viento Presión Humedad
    00:00 +19°C° 0 mm 2 mps 683 mmHg 69%
    01:00 +19°C° 0 mm 1 mps 683 mmHg 74%
    02:00 +18°C° 0 mm 1 mps 683 mmHg 78%
    03:00 +18°C° 0 mm 1 mps 683 mmHg 82%
    04:00 +16°C° 0 mm 1 mps 682 mmHg 86%
    05:00 +16°C° 0 mm 1 mps 682 mmHg 87%
    06:00 +16°C° 0 mm 1 mps 682 mmHg 87%
    07:00 +16°C° 0 mm 1 mps 682 mmHg 88%
    08:00 +17°C° 0 mm 2 mps 683 mmHg 79%
    09:00 +17°C° 0 mm 2 mps 683 mmHg 70%
    10:00 +18°C° 0 mm 3 mps 684 mmHg 61%
    11:00 +19°C° 0 mm 3 mps 684 mmHg 55%
    12:00 +19°C° 0 mm 3 mps 684 mmHg 49%
    13:00 +20°C° 0 mm 3 mps 684 mmHg 43%
    14:00 +20°C° 0 mm 4 mps 684 mmHg 43%
    15:00 +19°C° 0 mm 5 mps 684 mmHg 44%
    16:00 +19°C° 0 mm 6 mps 684 mmHg 44%
    17:00 +17°C° 0 mm 6 mps 684 mmHg 51%
    18:00 +16°C° 0 mm 6 mps 684 mmHg 58%
    19:00 +15°C° 0 mm 5 mps 684 mmHg 65%
    20:00 +14°C° 0 mm 5 mps 684 mmHg 70%
    21:00 +13°C° 0 mm 5 mps 685 mmHg 74%
    22:00 +12°C° 0 mm 4 mps 685 mmHg 78%
    23:00 +12°C° 0 mm 4 mps 685 mmHg 79%

    Pasado mañana, 25 Octubre, Viernes

    Tiempo Temperatura Precipitaciones Viento Presión Humedad
    00:00 +12°C° 0 mm 3 mps 685 mmHg 79%
    01:00 +11°C° 0 mm 3 mps 685 mmHg 79%
    02:00 +11°C° 0 mm 3 mps 684 mmHg 78%
    03:00 +11°C° 0 mm 3 mps 684 mmHg 78%
    04:00 +11°C° 0 mm 3 mps 684 mmHg 78%
    05:00 +11°C° 0 mm 4 mps 684 mmHg 77%
    06:00 +10°C° 0 mm 5 mps 684 mmHg 77%
    07:00 +9°C° 0 mm 5 mps 685 mmHg 76%
    08:00 +10°C° 0 mm 6 mps 685 mmHg 71%
    09:00 +11°C° 0 mm 7 mps 686 mmHg 66%
    10:00 +12°C° 0 mm 8 mps 686 mmHg 61%
    11:00 +13°C° 0 mm 8 mps 686 mmHg 56%
    12:00 +15°C° 0 mm 8 mps 686 mmHg 52%
    13:00 +16°C° 0 mm 8 mps 686 mmHg 47%
    14:00 +16°C° 0 mm 7 mps 686 mmHg 47%
    15:00 +16°C° 0 mm 7 mps 685 mmHg 48%
    16:00 +16°C° 0 mm 7 mps 685 mmHg 48%
    17:00 +15°C° 0 mm 6 mps 685 mmHg 54%
    18:00 +14°C° 0 mm 5 mps 685 mmHg 60%
    19:00 +13°C° 0 mm 5 mps 685 mmHg 66%
    20:00 +13°C° 0 mm 4 mps 685 mmHg 69%
    21:00 +12°C° 0 mm 4 mps 686 mmHg 72%
    22:00 +12°C° 0 mm 3 mps 686 mmHg 75%
    23:00 +12°C° 0 mm 3 mps 686 mmHg 75%

    26 Octubre, Sábado

    Tiempo Temperatura Precipitaciones Viento Presión Humedad
    00:00 +12°C° 0 mm 3 mps 685 mmHg 76%
    01:00 +11°C° 0 mm 3 mps 685 mmHg 77%
    02:00 +11°C° 0 mm 3 mps 685 mmHg 76%
    03:00 +11°C° 0 mm 3 mps 685 mmHg 75%
    04:00 +11°C° 0 mm 3 mps 684 mmHg 74%
    05:00 +11°C° 0 mm 3 mps 684 mmHg 74%
    06:00 +11°C° 0 mm 3 mps 684 mmHg 73%
    07:00 +11°C° 0 mm 3 mps 684 mmHg 73%
    08:00 +12°C° 0 mm 4 mps 685 mmHg 68%
    09:00 +13°C° 0 mm 4 mps 685 mmHg 62%
    10:00 +14°C° 0 mm 5 mps 685 mmHg 56%
    11:00 +14°C° 0.1 mm 5 mps 685 mmHg 57%
    12:00 +14°C° 0.1 mm 6 mps 685 mmHg 58%
    13:00 +14°C° 0.1 mm 6 mps 685 mmHg 59%
    14:00 +14°C° 0.8 mm 5 mps 685 mmHg 63%
    15:00 +13°C° 0.8 mm 4 mps 684 mmHg 68%
    16:00 +13°C° 0.8 mm 3 mps 684 mmHg 73%
    17:00 +12°C° 0.7 mm 3 mps 684 mmHg 76%
    18:00 +13°C° 0.7 mm 2 mps 684 mmHg 79%
    19:00 +13°C° 0.7 mm 1 mps 684 mmHg 82%
    20:00 +13°C° 0.3 mm 1 mps 685 mmHg 81%
    21:00 +13°C° 0.3 mm 1 mps 685 mmHg 81%
    22:00 +13°C° 0.3 mm 2 mps 685 mmHg 81%
    23:00 +13°C° 0.4 mm 2 mps 685 mmHg 81%

    27 Octubre, Domingo

    Tiempo Temperatura Precipitaciones Viento Presión Humedad
    00:00 +12°C° 0.4 mm 2 mps 685 mmHg 82%
    01:00 +12°C° 0.4 mm 2 mps 685 mmHg 82%
    02:00 +12°C° 0.2 mm 2 mps 685 mmHg 82%
    03:00 +12°C° 0.2 mm 1 mps 685 mmHg 81%
    04:00 +12°C° 0.2 mm 1 mps 685 mmHg 81%
    05:00 +12°C° 0.1 mm 1 mps 685 mmHg 82%
    06:00 +12°C° 0.1 mm 1 mps 685 mmHg 84%
    07:00 +12°C° 0.1 mm 1 mps 685 mmHg 85%
    08:00 +12°C° 0.2 mm 1 mps 685 mmHg 82%
    09:00 +13°C° 0.2 mm 2 mps 686 mmHg 79%
    10:00 +13°C° 0.2 mm 2 mps 686 mmHg 76%
    11:00 +14°C° 0.2 mm 2 mps 686 mmHg 71%
    12:00 +15°C° 0.2 mm 2 mps 686 mmHg 67%
    13:00 +16°C° 0.2 mm 3 mps 686 mmHg 62%
    14:00 +16°C° 0.6 mm 3 mps 685 mmHg 61%
    15:00 +16°C° 0.6 mm 3 mps 685 mmHg 60%
    16:00 +16°C° 0.6 mm 3 mps 685 mmHg 59%
    17:00 +16°C° 0.5 mm 3 mps 685 mmHg 65%
    18:00 +14°C° 0.5 mm 3 mps 685 mmHg 70%
    19:00 +13°C° 0.5 mm 3 mps 685 mmHg 76%
    20:00 +13°C° 0 mm 3 mps 685 mmHg 77%
    21:00 +14°C° 0 mm 2 mps 685 mmHg 78%
    22:00 +13°C° 0 mm 2 mps 686 mmHg 79%
    23:00 +13°C° 0 mm 2 mps 685 mmHg 80%

    28 Octubre, Lunes

    Tiempo Temperatura Precipitaciones Viento Presión Humedad
    00:00 +13°C° 0 mm 2 mps 685 mmHg 82%
    01:00 +13°C° 0 mm 2 mps 685 mmHg 83%
    02:00 +12°C° 0 mm 2 mps 685 mmHg 85%
    03:00 +12°C° 0 mm 2 mps 685 mmHg 88%
    04:00 +11°C° 0 mm 3 mps 684 mmHg 91%
    05:00 +11°C° 0 mm 3 mps 684 mmHg 91%
    06:00 +11°C° 0 mm 3 mps 684 mmHg 91%
    07:00 +11°C° 0 mm 3 mps 685 mmHg 92%
    08:00 +12°C° 0 mm 3 mps 685 mmHg 88%
    09:00 +13°C° 0 mm 4 mps 685 mmHg 85%
    10:00 +14°C° 0 mm 4 mps 685 mmHg 82%
    11:00 +14°C° 0 mm 4 mps 685 mmHg 79%
    12:00 +15°C° 0 mm 5 mps 685 mmHg 77%
    13:00 +16°C° 0 mm 5 mps 685 mmHg 74%
    14:00 +16°C° 0.1 mm 5 mps 685 mmHg 75%
    15:00 +16°C° 0.1 mm 6 mps 685 mmHg 75%
    16:00 +16°C° 0.1 mm 6 mps 685 mmHg 76%
    17:00 +16°C° 0.3 mm 6 mps 685 mmHg 79%
    18:00 +15°C° 0.3 mm 5 mps 685 mmHg 82%
    19:00 +15°C° 0.3 mm 5 mps 685 mmHg 85%
    20:00 +14°C° 0.3 mm 4 mps 685 mmHg 88%
    21:00 +14°C° 0.3 mm 4 mps 685 mmHg 90%
    22:00 +14°C° 0.3 mm 3 mps 685 mmHg 93%
    23:00 +14°C° 0 mm 3 mps 685 mmHg 94%

    29 Octubre, Martes

    Tiempo Temperatura Precipitaciones Viento Presión Humedad
    00:00 +14°C° 0 mm 2 mps 685 mmHg 95%
    01:00 +14°C° 0 mm 2 mps 685 mmHg 96%
    02:00 +14°C° 0 mm 2 mps 685 mmHg 95%
    03:00 +14°C° 0 mm 2 mps 685 mmHg 95%
    04:00 +14°C° 0 mm 2 mps 685 mmHg 94%
    05:00 +14°C° 0 mm 2 mps 685 mmHg 94%
    06:00 +14°C° 0 mm 2 mps 686 mmHg 94%
    07:00 +14°C° 0 mm 2 mps 686 mmHg 94%
    08:00 +14°C° 0 mm 3 mps 686 mmHg 86%
    09:00 +17°C° 0 mm 4 mps 687 mmHg 77%
    10:00 +18°C° 0 mm 4 mps 687 mmHg 69%
    11:00 +19°C° 0 mm 4 mps 687 mmHg 63%
    12:00 +20°C° 0 mm 5 mps 688 mmHg 57%
    13:00 +21°C° 0 mm 5 mps 688 mmHg 50%
    14:00 +20°C° 0 mm 5 mps 687 mmHg 53%
    15:00 +20°C° 0 mm 5 mps 687 mmHg 56%
    16:00 +20°C° 0 mm 5 mps 687 mmHg 58%
    17:00 +19°C° 0 mm 4 mps 687 mmHg 63%
    18:00 +18°C° 0 mm 3 mps 687 mmHg 68%
    19:00 +17°C° 0 mm 3 mps 688 mmHg 72%
    20:00 +17°C° 0 mm 2 mps 688 mmHg 74%
    21:00 +16°C° 0 mm 2 mps 688 mmHg 75%
    22:00 +16°C° 0 mm 1 mps 689 mmHg 76%
    23:00 +15°C° 0 mm 1 mps 689 mmHg 77%
    Mostrar más